| time (UTC) | temp C | wind direction | speed KPH | gust KPH | rain 1hr cm | rain 24hr cm | rain mn cm | humidity % | barometer mb |
| 20260503030526 | 21 | 21 | 1.6 | 4.8 | 0.00 | 0.00 | 0.00 | 57 | 1012.9 |
| 20260503030040 | 21 | 344 | 1.6 | 4.8 | 0.00 | 0.00 | 0.00 | 56 | 1012.9 |
| 20260503025526 | 22 | 10 | 0.0 | 3.2 | 0.00 | 0.00 | 0.00 | 55 | 1012.8 |
| 20260503025026 | 22 | 10 | 1.6 | 4.8 | 0.00 | 0.00 | 0.00 | 53 | 1012.8 |
| 20260503024540 | 22 | 339 | 1.6 | 8.0 | 0.00 | 0.00 | 0.00 | 53 | 1012.8 |
| 20260503024026 | 23 | 323 | 1.6 | 8.0 | 0.00 | 0.00 | 0.00 | 53 | 1012.6 |
| 20260503023526 | 23 | 26 | 1.6 | 8.0 | 0.00 | 0.00 | 0.00 | 51 | 1012.7 |
| 20260503023040 | 23 | 28 | 3.2 | 6.4 | 0.00 | 0.00 | 0.00 | 50 | 1012.6 |
| 20260503022527 | 23 | 326 | 3.2 | 14.5 | 0.00 | 0.00 | 0.00 | 50 | 1012.6 |
| 20260503022036 | 23 | 17 | 4.8 | 14.5 | 0.00 | 0.00 | 0.00 | 49 | 1012.6 |
| 20260503021543 | 23 | 15 | 4.8 | 12.9 | 0.00 | 0.00 | 0.00 | 49 | 1012.4 |
| 20260503021028 | 23 | 343 | 3.2 | 20.9 | 0.00 | 0.00 | 0.00 | 49 | 1012.5 |
| 20260503020526 | 23 | 16 | 8.0 | 20.9 | 0.00 | 0.00 | 0.00 | 49 | 1012.5 |
| 20260503020042 | 23 | 26 | 9.7 | 20.9 | 0.00 | 0.00 | 0.00 | 49 | 1012.5 |
| 20260503015525 | 23 | 13 | 6.4 | 14.5 | 0.00 | 0.00 | 0.00 | 49 | 1012.5 |
| 20260503015025 | 24 | 345 | 3.2 | 14.5 | 0.00 | 0.00 | 0.00 | 50 | 1012.5 |
| 20260503014542 | 24 | 344 | 3.2 | 11.3 | 0.00 | 0.00 | 0.00 | 48 | 1012.5 |
| 20260503014025 | 24 | 49 | 3.2 | 12.9 | 0.00 | 0.00 | 0.00 | 50 | 1012.4 |
| 20260503013526 | 24 | 41 | 6.4 | 16.1 | 0.00 | 0.00 | 0.00 | 49 | 1012.5 |
| 20260503013050 | 24 | 46 | 4.8 | 22.5 | 0.00 | 0.00 | 0.00 | 49 | 1012.5 |
| 20260503012527 | 24 | 86 | 3.2 | 22.5 | 0.00 | 0.00 | 0.00 | 50 | 1012.5 |
| 20260503012026 | 24 | 19 | 8.0 | 17.7 | 0.00 | 0.00 | 0.00 | 49 | 1012.6 |
| 20260503011543 | 24 | 26 | 4.8 | 12.9 | 0.00 | 0.00 | 0.00 | 49 | 1012.5 |
| 20260503011028 | 24 | 46 | 4.8 | 14.5 | 0.00 | 0.00 | 0.00 | 49 | 1012.6 |
| 20260503010528 | 24 | 40 | 3.2 | 14.5 | 0.00 | 0.00 | 0.00 | 48 | 1012.5 |
| 20260503005525 | 24 | 348 | 6.4 | 16.1 | 0.00 | 0.00 | 0.00 | 48 | 1012.5 |
| 20260503005028 | 25 | 360 | 4.8 | 16.1 | 0.00 | 0.00 | 0.00 | 49 | 1012.7 |
| 20260503004611 | 25 | 150 | 3.2 | 16.1 | 0.00 | 0.00 | 0.00 | 49 | 1012.7 |
| 20260503004026 | 25 | 27 | 3.2 | 11.3 | 0.00 | 0.00 | 0.00 | 51 | 1012.7 |
| 20260503003526 | 25 | 0 | 3.2 | 19.3 | 0.00 | 0.00 | 0.00 | 53 | 1012.7 |
| 20260503003041 | 24 | 19 | 4.8 | 19.3 | 0.00 | 0.00 | 0.00 | 52 | 1012.7 |
| 20260503002526 | 24 | 84 | 4.8 | 14.5 | 0.00 | 0.00 | 0.00 | 53 | 1012.7 |
| 20260503002026 | 24 | 67 | 3.2 | 11.3 | 0.00 | 0.00 | 0.00 | 53 | 1012.7 |
| 20260503001541 | 24 | 50 | 4.8 | 14.5 | 0.00 | 0.00 | 0.00 | 54 | 1012.8 |
| 20260503001026 | 24 | 327 | 4.8 | 19.3 | 0.00 | 0.00 | 0.00 | 53 | 1012.8 |
| 20260503000526 | 24 | 80 | 6.4 | 22.5 | 0.00 | 0.00 | 0.00 | 53 | 1012.9 |
| 20260503000042 | 24 | 105 | 3.2 | 22.5 | 0.00 | 0.00 | 0.00 | 55 | 1012.9 |
| 20260502235525 | 23 | 355 | 12.9 | 22.5 | 0.00 | 0.00 | 0.00 | 54 | 1012.9 |
| 20260502235029 | 24 | 342 | 9.7 | 19.3 | 0.00 | 0.00 | 0.00 | 53 | 1012.9 |
| 20260502234541 | 24 | 337 | 8.0 | 19.3 | 0.00 | 0.00 | 0.00 | 54 | 1013.0 |
| 20260502234026 | 24 | 13 | 9.7 | 20.9 | 0.00 | 0.00 | 0.00 | 52 | 1013.1 |
| 20260502233526 | 24 | 16 | 8.0 | 22.5 | 0.00 | 0.00 | 0.00 | 52 | 1013.0 |
| 20260502233039 | 24 | 36 | 9.7 | 24.1 | 0.00 | 0.00 | 0.00 | 53 | 1013.2 |
| 20260502232528 | 24 | 10 | 14.5 | 24.1 | 0.00 | 0.00 | 0.00 | 51 | 1013.2 |
| 20260502232026 | 24 | 67 | 9.7 | 22.5 | 0.00 | 0.00 | 0.00 | 52 | 1013.3 |
| 20260502231546 | 24 | 38 | 9.7 | 20.9 | 0.00 | 0.00 | 0.00 | 52 | 1013.4 |
| 20260502231026 | 24 | 18 | 6.4 | 17.7 | 0.00 | 0.00 | 0.00 | 52 | 1013.5 |
| 20260502230526 | 24 | 350 | 6.4 | 20.9 | 0.00 | 0.00 | 0.00 | 53 | 1013.6 |
| 20260502230044 | 24 | 94 | 8.0 | 20.9 | 0.00 | 0.00 | 0.00 | 54 | 1013.7 |
| 20260502225525 | 24 | 329 | 4.8 | 19.3 | 0.00 | 0.00 | 0.00 | 55 | 1013.8 |
| 20260502225025 | 24 | 343 | 3.2 | 19.3 | 0.00 | 0.00 | 0.00 | 56 | 1013.8 |
| 20260502224543 | 23 | 5 | 11.3 | 19.3 | 0.00 | 0.00 | 0.00 | 55 | 1013.8 |
| 20260502224028 | 23 | 322 | 6.4 | 17.7 | 0.00 | 0.00 | 0.00 | 57 | 1013.9 |
| 20260502223529 | 23 | 126 | 8.0 | 17.7 | 0.00 | 0.00 | 0.00 | 58 | 1014.0 |
| 20260502223045 | 23 | 348 | 6.4 | 17.7 | 0.00 | 0.00 | 0.00 | 55 | 1014.2 |
| 20260502222529 | 23 | 90 | 6.4 | 20.9 | 0.00 | 0.00 | 0.00 | 57 | 1014.2 |
| 20260502222026 | 23 | 29 | 8.0 | 20.9 | 0.00 | 0.00 | 0.00 | 55 | 1014.4 |
| 20260502221538 | 23 | 28 | 6.4 | 19.3 | 0.00 | 0.00 | 0.00 | 56 | 1014.4 |
| 20260502221027 | 23 | 350 | 3.2 | 27.4 | 0.00 | 0.00 | 0.00 | 59 | 1014.4 |
| 20260502220525 | 23 | 350 | 11.3 | 27.4 | 0.00 | 0.00 | 0.00 | 58 | 1014.4 |
| 20260502220041 | 23 | 80 | 4.8 | 16.1 | 0.00 | 0.00 | 0.00 | 56 | 1014.4 |
| 20260502215525 | 23 | 55 | 8.0 | 20.9 | 0.00 | 0.00 | 0.00 | 58 | 1014.6 |
| 20260502215026 | 22 | 125 | 4.8 | 25.7 | 0.00 | 0.00 | 0.00 | 58 | 1014.6 |
| 20260502214552 | 22 | 346 | 9.7 | 25.7 | 0.00 | 0.00 | 0.00 | 58 | 1014.7 |
| 20260502214027 | 22 | 36 | 14.5 | 25.7 | 0.00 | 0.00 | 0.00 | 57 | 1014.7 |
| 20260502213526 | 22 | 28 | 11.3 | 22.5 | 0.00 | 0.00 | 0.00 | 58 | 1014.9 |
| 20260502213042 | 22 | 331 | 8.0 | 19.3 | 0.00 | 0.00 | 0.00 | 59 | 1015.0 |
| 20260502212526 | 22 | 23 | 6.4 | 19.3 | 0.00 | 0.00 | 0.00 | 58 | 1015.1 |
| 20260502212027 | 22 | 344 | 8.0 | 19.3 | 0.00 | 0.00 | 0.00 | 60 | 1015.1 |
| 20260502211541 | 22 | 19 | 6.4 | 17.7 | 0.00 | 0.00 | 0.00 | 59 | 1015.2 |
| 20260502211025 | 21 | 67 | 6.4 | 17.7 | 0.00 | 0.00 | 0.00 | 60 | 1015.2 |
| 20260502210526 | 21 | 81 | 6.4 | 19.3 | 0.00 | 0.00 | 0.00 | 60 | 1015.2 |
| 20260502210048 | 21 | 316 | 9.7 | 19.3 | 0.00 | 0.00 | 0.00 | 61 | 1015.3 |
| 20260502205525 | 21 | 348 | 8.0 | 20.9 | 0.00 | 0.00 | 0.00 | 61 | 1015.3 |
| 20260502205025 | 21 | 38 | 6.4 | 20.9 | 0.00 | 0.00 | 0.00 | 61 | 1015.4 |
| 20260502204539 | 21 | 23 | 6.4 | 20.9 | 0.00 | 0.00 | 0.00 | 64 | 1015.3 |
| 20260502204025 | 21 | 100 | 9.7 | 20.9 | 0.00 | 0.00 | 0.00 | 60 | 1015.3 |
| 20260502203525 | 21 | 313 | 8.0 | 24.1 | 0.00 | 0.00 | 0.00 | 63 | 1015.4 |
| 20260502203052 | 21 | 33 | 8.0 | 24.1 | 0.00 | 0.00 | 0.00 | 62 | 1015.5 |
| 20260502202530 | 21 | 54 | 3.2 | 20.9 | 0.00 | 0.00 | 0.00 | 66 | 1015.5 |
| 20260502202025 | 20 | 49 | 9.7 | 27.4 | 0.00 | 0.00 | 0.00 | 64 | 1015.7 |
| 20260502201547 | 20 | 92 | 6.4 | 27.4 | 0.00 | 0.00 | 0.00 | 63 | 1015.7 |
| 20260502201026 | 20 | 5 | 11.3 | 25.7 | 0.00 | 0.00 | 0.00 | 64 | 1015.7 |
| 20260502200526 | 20 | 306 | 11.3 | 22.5 | 0.00 | 0.00 | 0.00 | 65 | 1015.7 |
| 20260502200043 | 20 | 21 | 6.4 | 17.7 | 0.00 | 0.00 | 0.00 | 67 | 1015.7 |
| 20260502195525 | 19 | 13 | 4.8 | 22.5 | 0.00 | 0.00 | 0.00 | 67 | 1015.8 |
| 20260502195025 | 19 | 24 | 6.4 | 22.5 | 0.00 | 0.00 | 0.00 | 69 | 1015.8 |
| 20260502194541 | 18 | 19 | 11.3 | 22.5 | 0.00 | 0.00 | 0.00 | 67 | 1015.9 |
| 20260502194027 | 18 | 47 | 4.8 | 22.5 | 0.00 | 0.00 | 0.00 | 68 | 1016.0 |
| 20260502193526 | 18 | 13 | 4.8 | 22.5 | 0.00 | 0.00 | 0.00 | 69 | 1016.1 |
| 20260502193041 | 18 | 26 | 12.9 | 20.9 | 0.00 | 0.00 | 0.00 | 69 | 1016.3 |
| 20260502192525 | 18 | 64 | 9.7 | 20.9 | 0.00 | 0.00 | 0.00 | 70 | 1016.3 |
| 20260502192025 | 18 | 290 | 9.7 | 24.1 | 0.00 | 0.00 | 0.00 | 70 | 1016.2 |
| 20260502191541 | 18 | 82 | 9.7 | 24.1 | 0.00 | 0.00 | 0.00 | 70 | 1016.3 |
| 20260502191025 | 18 | 346 | 14.5 | 25.7 | 0.00 | 0.00 | 0.00 | 70 | 1016.2 |
| 20260502190525 | 18 | 62 | 8.0 | 25.7 | 0.00 | 0.00 | 0.00 | 72 | 1016.3 |
| 20260502190042 | 18 | 18 | 11.3 | 22.5 | 0.00 | 0.00 | 0.00 | 70 | 1016.4 |
| 20260502185525 | 17 | 102 | 9.7 | 20.9 | 0.00 | 0.00 | 0.00 | 70 | 1016.5 |
| 20260502185025 | 17 | 345 | 4.8 | 16.1 | 0.00 | 0.00 | 0.00 | 74 | 1016.4 |
| 20260502184539 | 17 | 29 | 6.4 | 16.1 | 0.00 | 0.00 | 0.00 | 74 | 1016.6 |
| 20260502184025 | 17 | 96 | 4.8 | 20.9 | 0.00 | 0.00 | 0.00 | 73 | 1016.6 |
| 20260502183526 | 17 | 15 | 8.0 | 20.9 | 0.00 | 0.00 | 0.00 | 76 | 1016.7 |
| 20260502183042 | 16 | 336 | 12.9 | 20.9 | 0.00 | 0.00 | 0.00 | 73 | 1016.7 |
| 20260502182529 | 17 | 19 | 11.3 | 20.9 | 0.00 | 0.00 | 0.00 | 73 | 1016.7 |
| 20260502182025 | 16 | 141 | 9.7 | 20.9 | 0.00 | 0.00 | 0.00 | 74 | 1016.8 |
| 20260502181540 | 16 | 162 | 11.3 | 20.9 | 0.00 | 0.00 | 0.00 | 74 | 1016.8 |
| 20260502181025 | 16 | 321 | 6.4 | 20.9 | 0.00 | 0.00 | 0.00 | 75 | 1016.9 |
| 20260502180525 | 16 | 319 | 3.2 | 17.7 | 0.00 | 0.00 | 0.00 | 76 | 1016.8 |
| 20260502164025 | 12 | 338 | 3.2 | 8.0 | 0.00 | 0.00 | 0.00 | 88 | 1017.5 |
| 20260502163525 | 12 | 307 | 3.2 | 6.4 | 0.00 | 0.00 | 0.00 | 89 | 1017.4 |
| 20260502163042 | 12 | 69 | 1.6 | 9.7 | 0.00 | 0.00 | 0.00 | 91 | 1017.4 |
| 20260502162529 | 11 | 86 | 3.2 | 9.7 | 0.00 | 0.00 | 0.00 | 92 | 1017.4 |
| 20260502162026 | 11 | 291 | 3.2 | 9.7 | 0.00 | 0.00 | 0.00 | 92 | 1017.4 |
| 20260502161539 | 11 | 94 | 0.0 | 4.8 | 0.00 | 0.00 | 0.00 | 94 | 1017.5 |
| 20260502161029 | 11 | 298 | 0.0 | 3.2 | 0.00 | 0.00 | 0.00 | 94 | 1017.6 |
| 20260502160528 | 10 | 68 | 1.6 | 4.8 | 0.00 | 0.00 | 0.00 | 94 | 1017.6 |
| 20260502152024 | 10 | 348 | 3.2 | 9.7 | 0.00 | 0.00 | 0.00 | 97 | 1017.5 |
| 20260502151544 | 10 | 11 | 1.6 | 9.7 | 0.00 | 0.00 | 0.00 | 97 | 1017.6 |
| 20260502151025 | 9 | 60 | 4.8 | 9.7 | 0.00 | 0.00 | 0.00 | 97 | 1017.6 |
| 20260502150525 | 9 | 307 | 1.6 | 3.2 | 0.00 | 0.00 | 0.00 | 98 | 1017.5 |
| 20260502130528 | 6 | 0 | 0.0 | 3.2 | 0.00 | 0.00 | 0.00 | 97 | 1017.1 |
| 20260502123524 | 7 | 0 | 0.0 | 3.2 | 0.00 | 0.00 | 0.00 | 97 | 1016.9 |
| 20260502123043 | 6 | 348 | 1.6 | 3.2 | 0.00 | 0.00 | 0.00 | 97 | 1017.0 |
| 20260502122525 | 6 | 346 | 0.0 | 1.6 | 0.00 | 0.00 | 0.00 | 97 | 1017.3 |
| 20260502122025 | 6 | 285 | 0.0 | 1.6 | 0.00 | 0.00 | 0.00 | 97 | 1017.3 |
| 20260502121540 | 6 | 262 | 0.0 | 1.6 | 0.00 | 0.00 | 0.00 | 97 | 1017.4 |
| 20260502121026 | 6 | 263 | 0.0 | 1.6 | 0.00 | 0.00 | 0.00 | 97 | 1017.4 |
| 20260502120525 | 6 | 0 | 0.0 | 1.6 | 0.00 | 0.00 | 0.00 | 96 | 1017.4 |
| 20260502115525 | 7 | 0 | 0.0 | 1.6 | 0.00 | 0.00 | 0.00 | 96 | 1017.6 |
| 20260502115025 | 7 | 0 | 0.0 | 1.6 | 0.00 | 0.00 | 0.00 | 96 | 1017.5 |
| 20260502114600 | 7 | 0 | 0.0 | 1.6 | 0.00 | 0.00 | 0.00 | 96 | 1017.4 |
| 20260502114023 | 7 | 0 | 0.0 | 1.6 | 0.00 | 0.00 | 0.00 | 96 | 1017.4 |
| 20260502113525 | 7 | 262 | 1.6 | 1.6 | 0.00 | 0.00 | 0.00 | 97 | 1017.4 |
| 20260502113046 | 7 | 0 | 0.0 | 0.0 | 0.00 | 0.00 | 0.00 | 96 | 1017.5 |
| 20260502112525 | 7 | 175 | 0.0 | 1.6 | 0.00 | 0.00 | 0.00 | 96 | 1017.5 |
| 20260502112027 | 7 | 0 | 0.0 | 4.8 | 0.00 | 0.00 | 0.00 | 96 | 1017.5 |
| 20260502111542 | 7 | 175 | 1.6 | 4.8 | 0.00 | 0.00 | 0.00 | 96 | 1017.6 |
| 20260502111025 | 7 | 164 | 0.0 | 1.6 | 0.00 | 0.00 | 0.00 | 96 | 1017.4 |
| 20260502110525 | 7 | 0 | 0.0 | 1.6 | 0.00 | 0.00 | 0.00 | 96 | 1017.4 |
| 20260502110041 | 7 | 21 | 0.0 | 1.6 | 0.00 | 0.00 | 0.00 | 96 | 1017.3 |
| 20260502105525 | 7 | 0 | 0.0 | 1.6 | 0.00 | 0.00 | 0.00 | 96 | 1017.2 |
| 20260502105025 | 7 | 0 | 0.0 | 3.2 | 0.00 | 0.00 | 0.00 | 96 | 1017.1 |
| 20260502104541 | 7 | 0 | 0.0 | 3.2 | 0.00 | 0.00 | 0.00 | 96 | 1017.3 |
| 20260502104024 | 7 | 21 | 1.6 | 3.2 | 0.00 | 0.00 | 0.00 | 96 | 1017.4 |
| 20260502103525 | 7 | 0 | 0.0 | 1.6 | 0.00 | 0.00 | 0.00 | 96 | 1017.8 |
| 20260502103040 | 7 | 21 | 1.6 | 1.6 | 0.00 | 0.00 | 0.00 | 97 | 1017.8 |
| 20260502102526 | 7 | 125 | 0.0 | 0.0 | 0.00 | 0.00 | 0.00 | 96 | 1018.0 |
| 20260502102026 | 7 | 0 | 0.0 | 0.0 | 0.00 | 0.00 | 0.00 | 96 | 1018.2 |
| 20260502101558 | 7 | 0 | 0.0 | 1.6 | 0.00 | 0.00 | 0.00 | 96 | 1018.2 |
| 20260502101025 | 7 | 0 | 0.0 | 1.6 | 0.00 | 0.00 | 0.00 | 96 | 1018.2 |
| 20260502100525 | 7 | 125 | 0.0 | 1.6 | 0.00 | 0.00 | 0.00 | 96 | 1018.2 |
| 20260502091024 | 8 | 115 | 1.6 | 4.8 | 0.00 | 0.00 | 0.00 | 95 | 1017.4 |
| 20260502090524 | 8 | 0 | 0.0 | 0.0 | 0.00 | 0.00 | 0.00 | 95 | 1017.3 |
| 20260502071025 | 8 | 153 | 0.0 | 3.2 | 0.00 | 0.00 | 0.00 | 92 | 1017.5 |
| 20260502070525 | 8 | 120 | 0.0 | 3.2 | 0.00 | 0.00 | 0.00 | 92 | 1017.4 |
| 20260502070035 | 8 | 138 | 1.6 | 3.2 | 0.00 | 0.00 | 0.00 | 92 | 1017.3 |
| 20260502065525 | 8 | 142 | 1.6 | 1.6 | 0.00 | 0.00 | 0.00 | 91 | 1017.3 |
| 20260502065025 | 9 | 124 | 0.0 | 4.8 | 0.00 | 0.00 | 0.00 | 91 | 1017.2 |
| 20260502064611 | 9 | 142 | 0.0 | 4.8 | 0.00 | 0.00 | 0.00 | 91 | 1017.2 |
| 20260502064025 | 9 | 161 | 3.2 | 4.8 | 0.00 | 0.00 | 0.00 | 91 | 1017.3 |
| 20260502063525 | 9 | 170 | 1.6 | 6.4 | 0.00 | 0.00 | 0.00 | 90 | 1017.3 |
| 20260502063052 | 9 | 139 | 1.6 | 6.4 | 0.00 | 0.00 | 0.00 | 90 | 1017.3 |
| 20260502062525 | 9 | 128 | 3.2 | 6.4 | 0.00 | 0.00 | 0.00 | 90 | 1017.2 |
| 20260502062024 | 10 | 157 | 4.8 | 6.4 | 0.00 | 0.00 | 0.00 | 89 | 1017.3 |
| 20260502061543 | 10 | 147 | 1.6 | 4.8 | 0.00 | 0.00 | 0.00 | 89 | 1017.2 |
| 20260502061024 | 10 | 138 | 3.2 | 4.8 | 0.00 | 0.00 | 0.00 | 90 | 1017.3 |
| 20260502060527 | 10 | 181 | 1.6 | 3.2 | 0.00 | 0.00 | 0.00 | 89 | 1017.2 |
| 20260502060046 | 10 | 171 | 1.6 | 3.2 | 0.00 | 0.00 | 0.00 | 89 | 1017.3 |
| 20260502055524 | 10 | 172 | 3.2 | 6.4 | 0.00 | 0.00 | 0.00 | 88 | 1017.3 |
| 20260502055024 | 10 | 161 | 3.2 | 6.4 | 0.00 | 0.00 | 0.00 | 88 | 1017.3 |
| 20260502054538 | 10 | 145 | 3.2 | 6.4 | 0.00 | 0.00 | 0.00 | 88 | 1017.3 |
| 20260502054025 | 10 | 135 | 3.2 | 6.4 | 0.00 | 0.00 | 0.00 | 88 | 1017.3 |
| 20260502053524 | 10 | 150 | 3.2 | 6.4 | 0.00 | 0.00 | 0.00 | 88 | 1017.3 |
| 20260502053049 | 10 | 148 | 4.8 | 6.4 | 0.00 | 0.00 | 0.00 | 88 | 1017.2 |
| 20260502052525 | 10 | 188 | 4.8 | 6.4 | 0.00 | 0.00 | 0.00 | 88 | 1017.3 |
| 20260502052025 | 10 | 173 | 3.2 | 8.0 | 0.00 | 0.00 | 0.00 | 87 | 1017.2 |
| 20260502051542 | 10 | 152 | 3.2 | 9.7 | 0.00 | 0.00 | 0.00 | 87 | 1017.2 |
| 20260502051027 | 10 | 167 | 4.8 | 9.7 | 0.00 | 0.00 | 0.00 | 87 | 1017.1 |
| 20260502050525 | 11 | 175 | 6.4 | 9.7 | 0.00 | 0.00 | 0.00 | 87 | 1017.1 |
| 20260502050045 | 11 | 161 | 4.8 | 8.0 | 0.00 | 0.00 | 0.00 | 86 | 1017.1 |
| 20260502045525 | 11 | 175 | 4.8 | 9.7 | 0.00 | 0.00 | 0.00 | 86 | 1017.1 |
| 20260502045024 | 11 | 153 | 6.4 | 11.3 | 0.00 | 0.00 | 0.00 | 86 | 1017.0 |
| 20260502044541 | 11 | 171 | 8.0 | 12.9 | 0.00 | 0.00 | 0.00 | 85 | 1017.0 |
| 20260502044026 | 11 | 169 | 8.0 | 12.9 | 0.00 | 0.00 | 0.00 | 84 | 1016.8 |
| 20260502043526 | 11 | 160 | 8.0 | 12.9 | 0.00 | 0.00 | 0.00 | 84 | 1016.7 |
| 20260502043105 | 12 | 146 | 8.0 | 11.3 | 0.00 | 0.00 | 0.00 | 83 | 1016.8 |
| 20260502042526 | 12 | 143 | 6.4 | 11.3 | 0.00 | 0.00 | 0.00 | 82 | 1016.6 |
| 20260502042026 | 12 | 142 | 6.4 | 12.9 | 0.00 | 0.00 | 0.00 | 81 | 1016.5 |
| 20260502041546 | 12 | 244 | 6.4 | 14.5 | 0.00 | 0.00 | 0.00 | 80 | 1016.3 |
| 20260502041026 | 12 | 225 | 4.8 | 14.5 | 0.00 | 0.00 | 0.00 | 80 | 1016.3 |
| 20260502040528 | 12 | 235 | 6.4 | 12.9 | 0.00 | 0.00 | 0.00 | 80 | 1016.3 |
| 20260502040045 | 13 | 190 | 6.4 | 12.9 | 0.00 | 0.00 | 0.00 | 80 | 1016.3 |
| 20260502035527 | 13 | 225 | 4.8 | 14.5 | 0.00 | 0.00 | 0.00 | 79 | 1016.1 |
| 20260502035028 | 13 | 210 | 4.8 | 16.1 | 0.00 | 0.00 | 0.00 | 79 | 1016.1 |
| 20260502034541 | 13 | 231 | 8.0 | 16.1 | 0.00 | 0.00 | 0.00 | 78 | 1016.0 |
| 20260502034027 | 13 | 193 | 6.4 | 14.5 | 0.00 | 0.00 | 0.00 | 78 | 1015.9 |
| 20260502033527 | 13 | 219 | 6.4 | 12.9 | 0.00 | 0.00 | 0.00 | 77 | 1015.8 |
| 20260502033040 | 13 | 188 | 4.8 | 16.1 | 0.00 | 0.00 | 0.00 | 77 | 1015.8 |
| 20260502032526 | 14 | 222 | 6.4 | 16.1 | 0.00 | 0.00 | 0.00 | 76 | 1015.8 |
| 20260502032026 | 14 | 162 | 6.4 | 14.5 | 0.00 | 0.00 | 0.00 | 77 | 1015.8 |
| 20260502031540 | 14 | 173 | 4.8 | 14.5 | 0.00 | 0.00 | 0.00 | 76 | 1015.7 |
| 20260502031027 | 15 | 196 | 6.4 | 14.5 | 0.00 | 0.00 | 0.00 | 75 | 1015.6 |